timestamp,wind_dir_avg,wind_spd_max_dir,wind_spd_avg,wind_spd_gust,battery_voltage,lat,long
2018-12-31 00:00:00+00:00,16.0,13.0,11.29,14.29,,47.59359,-54.27349
2018-12-31 00:10:00+00:00,16.0,13.0,14.04,15.86,,47.59359,-54.27349
2018-12-31 00:20:00+00:00,15.0,13.0,11.61,13.72,,47.59359,-54.27349
2018-12-31 00:30:00+00:00,16.0,17.0,12.02,14.02,,47.59359,-54.27349
2018-12-31 00:40:00+00:00,12.0,10.0,12.4,14.06,,47.59359,-54.27349
2018-12-31 00:50:00+00:00,9.0,5.0,13.52,14.99,,47.59359,-54.27349
2018-12-31 01:00:00+00:00,14.0,11.0,11.75,13.81,,47.59359,-54.27349
2018-12-31 01:10:00+00:00,6.0,1.0,12.65,14.95,,47.59359,-54.27349
2018-12-31 01:20:00+00:00,10.0,12.0,11.89,13.88,,47.59359,-54.27349
2018-12-31 01:30:00+00:00,20.0,36.0,13.57,17.52,,47.59359,-54.27349
2018-12-31 01:40:00+00:00,7.0,9.0,12.4,14.25,,47.59359,-54.27349
2018-12-31 01:50:00+00:00,17.0,19.0,10.76,13.54,,47.59359,-54.27349
2018-12-31 02:00:00+00:00,13.0,14.0,11.12,13.07,,47.59359,-54.27349
2018-12-31 02:10:00+00:00,19.0,17.0,10.66,13.35,,47.59359,-54.27349
2018-12-31 02:20:00+00:00,10.0,7.0,12.29,14.09,,47.59359,-54.27349
2018-12-31 02:30:00+00:00,21.0,32.0,11.73,15.97,,47.59359,-54.27349
2018-12-31 02:40:00+00:00,12.0,13.0,14.0,16.7,,47.59359,-54.27349
2018-12-31 02:50:00+00:00,14.0,13.0,12.3,14.67,,47.59359,-54.27349
2018-12-31 03:00:00+00:00,1.0,358.0,12.13,13.9,,47.59359,-54.27349
2018-12-31 03:10:00+00:00,18.0,24.0,12.54,15.47,,47.59359,-54.27349
2018-12-31 03:20:00+00:00,1.0,356.0,10.92,12.64,,47.59359,-54.27349
2018-12-31 03:30:00+00:00,7.0,12.0,13.04,16.04,,47.59359,-54.27349
2018-12-31 03:40:00+00:00,3.0,5.0,11.26,14.06,,47.59359,-54.27349
2018-12-31 03:50:00+00:00,19.0,12.0,11.6,14.17,,47.59359,-54.27349
2018-12-31 04:00:00+00:00,11.0,12.0,12.33,13.82,,47.59359,-54.27349
2018-12-31 04:10:00+00:00,16.0,7.0,11.64,14.16,,47.59359,-54.27349
2018-12-31 04:20:00+00:00,16.0,11.0,10.27,13.5,,47.59359,-54.27349
2018-12-31 04:30:00+00:00,17.0,21.0,12.53,16.5,,47.59359,-54.27349
2018-12-31 04:40:00+00:00,17.0,16.0,10.65,12.19,,47.59359,-54.27349
2018-12-31 04:50:00+00:00,11.0,10.0,13.21,14.86,,47.59359,-54.27349
2018-12-31 05:00:00+00:00,6.0,5.0,10.59,13.04,,47.59359,-54.27349
2018-12-31 05:10:00+00:00,24.0,15.0,10.37,12.76,,47.59359,-54.27349
2018-12-31 05:20:00+00:00,20.0,28.0,14.98,18.5,,47.59359,-54.27349
2018-12-31 05:30:00+00:00,24.0,34.0,12.47,14.43,,47.59359,-54.27349
2018-12-31 05:40:00+00:00,12.0,9.0,13.52,15.49,,47.59359,-54.27349
2018-12-31 05:50:00+00:00,15.0,17.0,12.94,14.99,,47.59359,-54.27349
2018-12-31 06:00:00+00:00,22.0,32.0,12.44,16.56,,47.59359,-54.27349
2018-12-31 06:10:00+00:00,17.0,15.0,12.06,13.56,,47.59359,-54.27349
2018-12-31 06:20:00+00:00,14.0,23.0,11.19,13.75,,47.59359,-54.27349
2018-12-31 06:30:00+00:00,11.0,11.0,13.67,16.4,,47.59359,-54.27349
2018-12-31 06:40:00+00:00,14.0,21.0,12.97,14.82,,47.59359,-54.27349
2018-12-31 06:50:00+00:00,10.0,359.0,15.14,18.68,,47.59359,-54.27349
2018-12-31 07:00:00+00:00,29.0,31.0,17.26,19.17,,47.59359,-54.27349
2018-12-31 07:10:00+00:00,15.0,18.0,12.55,14.5,,47.59359,-54.27349
2018-12-31 07:20:00+00:00,15.0,15.0,14.05,17.72,,47.59359,-54.27349
2018-12-31 07:30:00+00:00,29.0,31.0,13.42,15.55,,47.59359,-54.27349
2018-12-31 07:40:00+00:00,8.0,7.0,11.68,13.16,,47.59359,-54.27349
2018-12-31 07:50:00+00:00,1.0,5.0,11.86,13.42,,47.59359,-54.27349
2018-12-31 08:00:00+00:00,15.0,19.0,12.39,14.17,,47.59359,-54.27349
2018-12-31 08:10:00+00:00,359.0,4.0,14.1,15.87,,47.59359,-54.27349
2018-12-31 08:20:00+00:00,13.0,16.0,13.53,15.03,,47.59359,-54.27349
2018-12-31 08:30:00+00:00,13.0,18.0,13.24,14.86,,47.59359,-54.27349
2018-12-31 08:40:00+00:00,6.0,2.0,11.58,13.57,,47.59359,-54.27349
2018-12-31 08:50:00+00:00,3.0,0.0,14.45,15.92,,47.59359,-54.27349
2018-12-31 09:00:00+00:00,12.0,16.0,12.08,13.77,,47.59359,-54.27349
2018-12-31 09:10:00+00:00,8.0,6.0,12.49,13.55,,47.59359,-54.27349
2018-12-31 09:20:00+00:00,14.0,20.0,12.81,14.47,,47.59359,-54.27349
2018-12-31 09:30:00+00:00,9.0,2.0,12.34,14.02,,47.59359,-54.27349
2018-12-31 09:40:00+00:00,18.0,18.0,12.0,14.21,,47.59359,-54.27349
2018-12-31 09:50:00+00:00,8.0,21.0,10.44,12.52,,47.59359,-54.27349
2018-12-31 10:00:00+00:00,15.0,16.0,11.53,13.35,,47.59359,-54.27349
2018-12-31 10:10:00+00:00,4.0,3.0,12.43,14.68,,47.59359,-54.27349
2018-12-31 10:20:00+00:00,14.0,25.0,10.25,12.54,,47.59359,-54.27349
2018-12-31 10:30:00+00:00,11.0,21.0,11.06,13.77,,47.59359,-54.27349
2018-12-31 10:40:00+00:00,11.0,7.0,10.64,12.44,,47.59359,-54.27349
2018-12-31 10:50:00+00:00,17.0,15.0,12.77,15.76,,47.59359,-54.27349
2018-12-31 11:00:00+00:00,15.0,15.0,9.94,11.75,,47.59359,-54.27349
2018-12-31 11:10:00+00:00,4.0,359.0,11.14,12.67,,47.59359,-54.27349
2018-12-31 11:20:00+00:00,7.0,12.0,12.99,16.05,,47.59359,-54.27349
2018-12-31 11:30:00+00:00,24.0,27.0,12.42,14.36,,47.59359,-54.27349
2018-12-31 11:40:00+00:00,23.0,21.0,10.06,12.12,,47.59359,-54.27349
2018-12-31 11:50:00+00:00,4.0,11.0,11.4,17.26,,47.59359,-54.27349
2018-12-31 12:00:00+00:00,13.0,15.0,13.34,15.24,,47.59359,-54.27349
2018-12-31 12:10:00+00:00,10.0,16.0,11.56,13.33,,47.59359,-54.27349
2018-12-31 12:20:00+00:00,25.0,20.0,11.39,13.82,,47.59359,-54.27349
2018-12-31 12:30:00+00:00,4.0,5.0,10.76,12.7,,47.59359,-54.27349
2018-12-31 12:40:00+00:00,20.0,29.0,7.64,9.25,,47.59359,-54.27349
2018-12-31 12:50:00+00:00,14.0,8.0,11.16,14.22,,47.59359,-54.27349
2018-12-31 13:00:00+00:00,34.0,32.0,10.01,15.62,,47.59359,-54.27349
2018-12-31 13:10:00+00:00,14.0,11.0,11.66,13.81,,47.59359,-54.27349
2018-12-31 13:20:00+00:00,19.0,34.0,10.98,15.53,,47.59359,-54.27349
2018-12-31 13:30:00+00:00,12.0,8.0,11.63,14.04,,47.59359,-54.27349
2018-12-31 13:40:00+00:00,11.0,14.0,12.53,14.71,,47.59359,-54.27349
2018-12-31 13:50:00+00:00,13.0,16.0,11.76,13.17,,47.59359,-54.27349
2018-12-31 14:00:00+00:00,29.0,32.0,10.3,13.75,,47.59359,-54.27349
2018-12-31 14:10:00+00:00,9.0,13.0,11.39,14.62,,47.59359,-54.27349
2018-12-31 14:20:00+00:00,10.0,9.0,11.32,13.99,,47.59359,-54.27349
2018-12-31 14:30:00+00:00,13.0,11.0,11.21,13.02,,47.59359,-54.27349
2018-12-31 14:40:00+00:00,20.0,34.0,10.46,13.61,,47.59359,-54.27349
2018-12-31 14:50:00+00:00,24.0,28.0,10.41,13.18,,47.59359,-54.27349
2018-12-31 15:00:00+00:00,13.0,14.0,9.05,10.79,,47.59359,-54.27349
2018-12-31 15:10:00+00:00,359.0,357.0,10.53,12.77,,47.59359,-54.27349
2018-12-31 15:20:00+00:00,6.0,1.0,11.82,14.21,,47.59359,-54.27349
2018-12-31 15:30:00+00:00,354.0,354.0,12.27,14.74,,47.59359,-54.27349
2018-12-31 15:40:00+00:00,4.0,8.0,13.22,16.46,,47.59359,-54.27349
2018-12-31 15:50:00+00:00,6.0,6.0,12.91,15.33,,47.59359,-54.27349
2018-12-31 16:00:00+00:00,358.0,358.0,12.84,14.65,,47.59359,-54.27349
2018-12-31 16:10:00+00:00,356.0,357.0,11.22,12.81,,47.59359,-54.27349
2018-12-31 16:20:00+00:00,7.0,8.0,11.47,13.25,,47.59359,-54.27349
2018-12-31 16:30:00+00:00,356.0,0.0,13.83,16.87,,47.59359,-54.27349
2018-12-31 16:40:00+00:00,352.0,348.0,10.98,13.85,,47.59359,-54.27349
2018-12-31 16:50:00+00:00,354.0,353.0,11.25,13.69,,47.59359,-54.27349
2018-12-31 17:00:00+00:00,355.0,352.0,12.57,14.87,,47.59359,-54.27349
2018-12-31 17:10:00+00:00,358.0,2.0,11.36,12.97,,47.59359,-54.27349
2018-12-31 17:20:00+00:00,8.0,11.0,9.59,11.83,,47.59359,-54.27349
2018-12-31 17:30:00+00:00,353.0,350.0,11.83,15.12,,47.59359,-54.27349
2018-12-31 17:40:00+00:00,349.0,352.0,10.45,11.93,,47.59359,-54.27349
2018-12-31 17:50:00+00:00,355.0,352.0,11.44,13.0,,47.59359,-54.27349
2018-12-31 18:00:00+00:00,2.0,357.0,9.9,12.73,,47.59359,-54.27349
2018-12-31 18:10:00+00:00,356.0,348.0,9.88,11.38,,47.59359,-54.27349
2018-12-31 18:20:00+00:00,355.0,352.0,10.46,11.66,,47.59359,-54.27349
2018-12-31 18:30:00+00:00,353.0,353.0,10.76,13.03,,47.59359,-54.27349
2018-12-31 18:40:00+00:00,346.0,341.0,10.69,12.48,,47.59359,-54.27349
2018-12-31 18:50:00+00:00,346.0,347.0,11.45,13.74,,47.59359,-54.27349
2018-12-31 19:00:00+00:00,355.0,351.0,9.88,11.04,,47.59359,-54.27349
2018-12-31 19:10:00+00:00,341.0,344.0,9.86,12.07,,47.59359,-54.27349
2018-12-31 19:20:00+00:00,353.0,351.0,9.71,12.35,,47.59359,-54.27349
2018-12-31 19:30:00+00:00,346.0,346.0,9.51,11.63,,47.59359,-54.27349
2018-12-31 19:40:00+00:00,342.0,342.0,8.84,10.83,,47.59359,-54.27349
2018-12-31 19:50:00+00:00,354.0,4.0,8.02,9.21,,47.59359,-54.27349
2018-12-31 20:00:00+00:00,355.0,348.0,9.16,10.66,,47.59359,-54.27349
2018-12-31 20:10:00+00:00,357.0,355.0,6.71,9.19,,47.59359,-54.27349
2018-12-31 20:20:00+00:00,358.0,356.0,9.06,11.7,,47.59359,-54.27349
2018-12-31 20:30:00+00:00,354.0,348.0,8.99,10.91,,47.59359,-54.27349
2018-12-31 20:40:00+00:00,7.0,16.0,9.94,12.03,,47.59359,-54.27349
2018-12-31 20:50:00+00:00,6.0,6.0,9.28,11.6,,47.59359,-54.27349
2018-12-31 21:00:00+00:00,351.0,352.0,7.1,9.95,,47.59359,-54.27349
2018-12-31 21:10:00+00:00,12.0,8.0,8.18,10.8,,47.59359,-54.27349
2018-12-31 21:20:00+00:00,355.0,353.0,10.41,12.68,,47.59359,-54.27349
2018-12-31 21:30:00+00:00,351.0,358.0,10.13,11.69,,47.59359,-54.27349
2018-12-31 21:40:00+00:00,336.0,341.0,7.9,9.74,,47.59359,-54.27349
2018-12-31 21:50:00+00:00,324.0,334.0,6.92,9.97,,47.59359,-54.27349
2018-12-31 22:00:00+00:00,342.0,347.0,7.55,9.54,,47.59359,-54.27349
2018-12-31 22:10:00+00:00,331.0,337.0,6.54,10.52,,47.59359,-54.27349
2018-12-31 22:20:00+00:00,345.0,351.0,6.33,9.89,,47.59359,-54.27349
2018-12-31 22:30:00+00:00,349.0,341.0,5.09,7.67,,47.59359,-54.27349
2018-12-31 22:40:00+00:00,351.0,3.0,3.91,6.44,,47.59359,-54.27349
2018-12-31 22:50:00+00:00,10.0,12.0,4.36,7.26,,47.59359,-54.27349
2018-12-31 23:00:00+00:00,339.0,344.0,4.79,9.35,,47.59359,-54.27349
2018-12-31 23:10:00+00:00,343.0,342.0,4.75,6.08,,47.59359,-54.27349
2018-12-31 23:20:00+00:00,321.0,323.0,5.65,6.54,,47.59359,-54.27349
2018-12-31 23:30:00+00:00,318.0,320.0,5.69,6.6,,47.59359,-54.27349
2018-12-31 23:40:00+00:00,325.0,326.0,5.66,7.97,,47.59359,-54.27349
2018-12-31 23:50:00+00:00,323.0,330.0,7.75,10.24,,47.59359,-54.27349
